[[{"header":{"parameterUnit":"m.s-1","parameterCategory":2,"la1":30.2991,"la2":30.254,"lo1":-89.0895,"lo2":-89.0444,"dy":0.0017,"dx":0.0017,"nx":28,"ny":28,"refTime":"2025-11-21T03:00:00:Z","depth":"0","parameterNumber":2,"parameterNumberName":"U-component_of_CURRENTS"},"data":[0,0,0,0,0,0,0,0,0,0,0,0,0,0,0,0,0,0,0,0,0,0,0,0,0,0,0,0,0,0,0,0,0,0,0,0,0,0,0,0,0,0,0,0,0,0,0,0,0,0,0,0,0,0,0,0,0,0,0.3406,0.3406,0,0.3409,0.3409,0.3409,0.3382,0.3381,0.3381,0.338,0.3355,0.3355,0.3354,0,0,0,0,0,0,0,0,0,0,0,0,0,0.3389,0.3389,0.3406,0.3406,0.3407,0.3409,0.3409,0.3409,0.3382,0.3381,0.3381,0.338,0.3355,0.3355,0.3354,0,0,0,0,0,0,0,0,0,0,0,0,0,0.3392,0.3389,0.3406,0.3395,0.3395,0.3409,0.3409,0.3408,0.3382,0.3381,0.338,0.338,0.3355,0.3355,0.3354,0.3368,0,0,0.3353,0.3353,0,0,0,0,0,0,0,0,0.3392,0.3392,0.3397,0.3396,0.3395,0.3396,0.3393,0.3394,0.3382,0.3384,0.338,0.3379,0.3368,0.3367,0.3366,0.3366,0.3365,0.3353,0.3353,0.3353,0.3353,0,0,0,0,0,0,0,0.3391,0.3392,0.3405,0.3397,0.3396,0.3395,0.3394,0.3393,0.3378,0.3384,0.3383,0.3387,0.3367,0.3366,0.3365,0.3365,0.3353,0.3353,0.3353,0.3353,0.341,0.3411,0,0,0,0,0,0,0.3397,0.3392,0.3405,0.3405,0.3395,0.3396,0.3395,0.3395,0.3379,0.3376,0.3388,0.3386,0.3367,0.3365,0.3364,0.3404,0.3353,0.3353,0.3352,0.3408,0.341,0.3412,0,0,0,0,0,0,0.3396,0.3398,0.3404,0.3401,0.3402,0.3397,0.3397,0.3395,0.3399,0.3382,0.3379,0.3394,0.3366,0.3364,0.3375,0.3402,0.3353,0.3352,0.3406,0.3409,0.3411,0.3469,0,0,0,0,0,0,0.3395,0.3397,0.3402,0.3401,0.3402,0.3419,0.3398,0.3396,0.3404,0.3401,0.3387,0.3383,0.3366,0.3376,0.3375,0.3401,0.3352,0.3404,0.3407,0.341,0.3464,0.3473,0.348,0,0,0,0,0,0.3395,0.3404,0.3402,0.3404,0.3407,0.342,0.3421,0.3413,0.3405,0.3412,0.3406,0.3384,0.3395,0.3377,0.3375,0.3402,0.3402,0.3406,0.341,0.3461,0.3471,0.348,0,0,0,0,0,0,0.3396,0.3402,0.34,0.3409,0.3418,0.3417,0.3424,0.3422,0.3422,0.3421,0.34,0.3397,0.3422,0.3406,0.3386,0.343,0.3398,0.3401,0.3437,0.3446,0.3454,0.3458,0.3352,0,0,0,0,0,0.3401,0.3408,0.3415,0.3423,0.3429,0.343,0.3435,0.3433,0.3434,0.3433,0.3424,0.3423,0.3437,0.3436,0.3441,0.3459,0.3461,0.3478,0.3486,0.3492,0.3496,0.3539,0.3551,0.3424,0.3424,0.3424,0,0,0.3402,0.3408,0.3411,0.3425,0.3429,0.3445,0.343,0.3444,0.3459,0.3432,0.3446,0.3451,0.345,0.3475,0.3484,0.3462,0.3529,0.3497,0.3502,0.3503,0.3544,0.3556,0.3567,0.3427,0.3426,0.3426,0,0,0.3412,0.3417,0.3428,0.344,0.3456,0.3462,0.347,0.3477,0.348,0.3499,0.3493,0.3516,0.3518,0.353,0.3536,0.3591,0.3574,0.3593,0.3627,0.3668,0.3679,0.3688,0.3702,0.3712,0.359,0.359,0.359,0,0.3416,0.3425,0.3434,0.3452,0.3462,0.3472,0.3488,0.3502,0.3512,0.3531,0.351,0.3554,0.3548,0.3597,0.3612,0.3608,0.3618,0.3589,0.3678,0.3687,0.3696,0.3708,0.3718,0.3594,0.3593,0.3593,0.3593,0,0.3432,0.3444,0.3454,0.3477,0.3495,0.351,0.3533,0.3556,0.3562,0.3582,0.3629,0.3627,0.3653,0.3661,0.3648,0.3713,0.3696,0.3688,0.3652,0.3712,0.372,0.373,0.3598,0.3597,0.3596,0.3595,0,0,0.3418,0.3456,0.3457,0.3469,0.3506,0.3519,0.3563,0.3606,0.3642,0.3662,0.3705,0.3736,0.3744,0.3752,0.3748,0.3776,0.3838,0.3755,0.3755,0.3763,0.3916,0.3871,0.3876,0.3848,0.385,0.3852,0.3896,0,0.3422,0.3449,0.3473,0.3502,0.3515,0.3551,0.3591,0.3639,0.3676,0.3724,0.3755,0.3793,0.3777,0.3788,0.3822,0.384,0.3868,0.3826,0.3861,0.3861,0.3811,0.3888,0.3744,0.3769,0.3905,0.3906,0.3908,0,0.3417,0.3439,0.3461,0.3509,0.352,0.3544,0.3611,0.3651,0.374,0.3777,0.3837,0.3856,0.3912,0.3877,0.3949,0.3924,0.3927,0.3931,0.3933,0.3877,0.3835,0.3733,0.3781,0.3693,0.3922,0.3921,0.392,0,0.3378,0.3424,0.3437,0.3452,0.3516,0.3538,0.3576,0.3663,0.3713,0.3808,0.3853,0.3928,0.3957,0.3991,0.4005,0.3983,0.4072,0.4041,0.4003,0.3998,0.3875,0.3856,0.3836,0.4093,0.4093,0.4092,0.4092,0,0.3358,0.3368,0.3418,0.3425,0.3459,0.3511,0.3566,0.3629,0.3726,0.3793,0.3867,0.3926,0.3989,0.404,0.4042,0.4062,0.4108,0.4026,0.402,0.389,0.3873,0.3788,0.3734,0.4094,0.4094,0.4093,0.4093,0,0.3305,0.3337,0.3357,0.3416,0.3436,0.3457,0.3548,0.3592,0.3696,0.3782,0.3811,0.3944,0.4018,0.4064,0.4126,0.4103,0.4008,0.4111,0.3943,0.3916,0.3778,0.3731,0.3578,0.3475,0.4073,0.4073,0.4072,0,0.3277,0.3281,0.3333,0.3344,0.3365,0.3412,0.3446,0.3561,0.3613,0.3785,0.3814,0.3933,0.3995,0.4083,0.4074,0.4082,0.3975,0.3948,0.388,0.3768,0.3713,0.3574,0.3489,0.3734,0.3731,0.3728,0.3726,0,0.3229,0.3244,0.3263,0.3283,0.3306,0.3347,0.3401,0.3443,0.3579,0.365,0.3753,0.382,0.3933,0.3901,0.3939,0.3925,0.3756,0.3892,0.3824,0.3492,0.329,0.3188,0.3695,0.3702,0.3704,0.3706,0.3707,0.3708,0.3185,0.3181,0.3199,0.3205,0.3232,0.3247,0.3239,0.3311,0.3371,0.3437,0.3603,0.3634,0.373,0.3766,0.3737,0.3612,0.3585,0.3498,0.3466,0.3348,0.3197,0.3648,0.3622,0.3623,0.3625,0.3626,0.3628,0,0.311,0.3109,0.3118,0.311,0.3084,0.3141,0.3174,0.3138,0.3133,0.3251,0.3309,0.3361,0.3354,0.3405,0.3353,0.3214,0.3068,0.3117,0.2889,0.2838,0.329,0.3226,0.3053,0.3053,0.3054,0.3054,0.3054,0.3054,0.3073,0.3037,0.3031,0.2952,0.2943,0.2869,0.2856,0.2827,0.2862,0.2842,0.2846,0.2933,0.3087,0.311,0.2987,0.2913,0.2692,0.2548,0.2553,0.2885,0.2918,0.2949,0.2879,0.2636,0.2636,0.1992,0.1987,0.1983]},{"header":{"parameterUnit":"m.s-1","parameterCategory":2,"la1":30.2991,"la2":30.254,"lo1":-89.0895,"lo2":-89.0444,"dy":0.0017,"dx":0.0017,"nx":28,"ny":28,"refTime":"2025-11-21T03:00:00:Z","depth":"0","parameterNumber":3,"parameterNumberName":"V-component_of_CURRENTS"},"data":[0,0,0,0,0,0,0,0,0,0,0,0,0,0,0,0,0,0,0,0,0,0,0,0,0,0,0,0,0,0,0,0,0,0,0,0,0,0,0,0,0,0,0,0,0,0,0,0,0,0,0,0,0,0,0,0,0,0,0.023,0.023,0,0.0192,0.0191,0.0191,0.0162,0.0162,0.0162,0.0162,0.0109,0.0108,0.0106,0,0,0,0,0,0,0,0,0,0,0,0,0,0.0223,0.0223,0.023,0.0229,0.0229,0.0192,0.0191,0.0191,0.0162,0.0162,0.0162,0.0162,0.0109,0.0108,0.0106,0,0,0,0,0,0,0,0,0,0,0,0,0,0.0208,0.0223,0.023,0.0212,0.021,0.0192,0.0191,0.019,0.0162,0.0162,0.0162,0.0162,0.011,0.0108,0.0106,0.0098,0,0,0.01,0.0099,0,0,0,0,0,0,0,0,0.0209,0.0208,0.0215,0.0213,0.0211,0.0183,0.0169,0.0159,0.0162,0.0179,0.0162,0.0162,0.0133,0.0129,0.0121,0.0096,0.0093,0.01,0.0099,0.0098,0.0097,0,0,0,0,0,0,0,0.021,0.021,0.0213,0.0214,0.0212,0.0186,0.0184,0.0167,0.0156,0.0177,0.0175,0.0174,0.0132,0.0123,0.0119,0.0092,0.01,0.0098,0.0097,0.0096,0.0064,0.0064,0,0,0,0,0,0,0.0221,0.0211,0.0215,0.0212,0.0211,0.0187,0.0185,0.0191,0.0157,0.0152,0.0174,0.0172,0.0126,0.0122,0.0117,0.0126,0.0098,0.0096,0.0095,0.0064,0.0064,0.0065,0,0,0,0,0,0,0.0221,0.0222,0.0216,0.0211,0.0209,0.0188,0.0194,0.019,0.0186,0.0154,0.0149,0.0174,0.0126,0.012,0.011,0.0123,0.0095,0.0094,0.0064,0.0064,0.0064,0.0131,0,0,0,0,0,0,0.0221,0.0223,0.0228,0.0212,0.021,0.0217,0.0195,0.019,0.0185,0.0183,0.0153,0.0148,0.0125,0.0113,0.0108,0.012,0.0092,0.0063,0.0064,0.0064,0.0129,0.0134,0.0138,0,0,0,0,0,0.0221,0.0237,0.0229,0.0229,0.022,0.0218,0.0215,0.0197,0.0185,0.0191,0.0168,0.0149,0.0113,0.0112,0.0106,0.0118,0.0063,0.0064,0.0064,0.0126,0.0133,0.0138,0,0,0,0,0,0,0.0235,0.0235,0.0226,0.024,0.0233,0.0214,0.0215,0.0203,0.0189,0.0185,0.0154,0.0148,0.0141,0.012,0.0119,0.0109,0.0084,0.0084,0.0133,0.0139,0.0144,0.0167,0.009,0,0,0,0,0,0.0242,0.0253,0.0245,0.0254,0.0254,0.0235,0.023,0.022,0.0206,0.0199,0.0179,0.0155,0.0138,0.0132,0.011,0.0109,0.0086,0.0111,0.0116,0.012,0.0134,0.0109,0.0114,0.0067,0.0067,0.0067,0,0,0.0249,0.025,0.0255,0.0258,0.0249,0.0263,0.0232,0.0232,0.0243,0.0196,0.0201,0.017,0.014,0.0136,0.0131,0.0122,0.012,0.0121,0.0125,0.0137,0.011,0.0115,0.0119,0.0067,0.0067,0.0067,0,0,0.0275,0.027,0.0291,0.0292,0.0289,0.0281,0.0286,0.0272,0.0265,0.0262,0.0231,0.0213,0.0187,0.0172,0.016,0.018,0.0143,0.0168,0.0218,0.0193,0.0197,0.02,0.0174,0.0175,0.0175,0.0175,0.0175,0,0.0283,0.0311,0.0296,0.0317,0.0326,0.0296,0.0324,0.0313,0.0297,0.03,0.0273,0.0239,0.0207,0.0212,0.0215,0.0193,0.0171,0.02,0.0201,0.0204,0.0206,0.0178,0.0178,0.0178,0.0178,0.0178,0.0177,0,0.033,0.0349,0.0362,0.0384,0.039,0.0406,0.0396,0.0395,0.0378,0.037,0.0362,0.0313,0.0297,0.0279,0.0252,0.0256,0.0232,0.0207,0.019,0.0215,0.0184,0.0182,0.0183,0.0182,0.0181,0.018,0,0,0.0359,0.0391,0.0395,0.0422,0.0428,0.0444,0.0457,0.0472,0.0498,0.0457,0.0481,0.0432,0.0402,0.0386,0.0344,0.0321,0.0306,0.0277,0.0274,0.0259,0.0251,0.0237,0.0234,0.028,0.0281,0.0281,0.0223,0,0.0402,0.0463,0.0464,0.0521,0.0555,0.0537,0.0561,0.0565,0.0559,0.0572,0.0515,0.0515,0.0445,0.0437,0.0402,0.0336,0.0306,0.0324,0.0223,0.022,0.0212,0.0233,0.0266,0.0218,0.0221,0.0221,0.022,0,0.0451,0.049,0.0555,0.0606,0.0619,0.0644,0.0685,0.0706,0.0707,0.0702,0.0682,0.0633,0.0595,0.0525,0.0426,0.0441,0.0354,0.0292,0.0288,0.0254,0.0204,0.0193,0.0214,0.0092,0.0217,0.0218,0.0218,0,0.0493,0.0554,0.0612,0.0628,0.0677,0.07,0.0726,0.0746,0.0787,0.0787,0.0807,0.0743,0.0723,0.0606,0.0464,0.0446,0.0352,0.0307,0.021,0.0208,0.0207,0.0205,0.0108,0.0232,0.0232,0.0232,0.0232,0,0.0546,0.0592,0.0637,0.0671,0.075,0.0759,0.0841,0.0854,0.0894,0.097,0.0879,0.0911,0.0742,0.066,0.0509,0.0366,0.0381,0.023,0.0198,0.023,0.023,0.0099,0.0007,0.023,0.023,0.0231,0.0231,0,0.0585,0.061,0.0686,0.0748,0.0772,0.0831,0.0922,0.0986,0.1005,0.1097,0.1098,0.1047,0.0951,0.0765,0.0593,0.0444,0.0216,0.0229,0.0278,0.0253,0.0047,-0.0043,-0.0182,-0.0244,0.0119,0.0119,0.0118,0,0.0612,0.0654,0.0745,0.08,0.083,0.0919,0.0987,0.1039,0.112,0.1193,0.1245,0.1175,0.1164,0.0893,0.0623,0.0365,0.0212,0.0205,0.017,0.0052,-0.0073,-0.0129,-0.0176,0.0189,0.0189,0.0189,0.0189,0,0.0668,0.0695,0.0758,0.0871,0.0951,0.1058,0.1159,0.1242,0.1326,0.141,0.1504,0.1498,0.1252,0.1027,0.0659,0.0464,0.0123,0.0198,0.0066,-0.0029,-0.0086,-0.0166,0.0203,0.019,0.019,0.019,0.019,0.019,0.0705,0.076,0.084,0.0952,0.105,0.1184,0.1288,0.1415,0.1567,0.1718,0.1705,0.1751,0.1403,0.0922,0.0628,0.0144,0.0123,0.0009,-0.0092,-0.0137,-0.0194,0.0178,0.0133,0.0133,0.0133,0.0132,0.0132,0,0.0752,0.0817,0.0919,0.1051,0.1167,0.1214,0.1396,0.1519,0.1719,0.1872,0.1969,0.1852,0.1413,0.0936,0.0277,-0.0067,-0.0197,-0.0257,-0.0327,-0.0364,-0.0032,-0.0022,-0.0089,-0.0089,-0.0089,-0.0089,-0.0089,-0.0089,0.0776,0.0871,0.0926,0.1119,0.1221,0.1391,0.1504,0.1697,0.1849,0.206,0.2126,0.2135,0.1771,0.0614,-0.0152,-0.0337,-0.0575,-0.0628,-0.0759,-0.053,-0.0512,-0.0495,-0.0506,-0.0674,-0.0674,-0.1013,-0.1016,-0.1019]}],[{"header":{"parameterUnit":"m.s-1","parameterCategory":2,"la1":30.2991,"la2":30.254,"lo1":-89.0895,"lo2":-89.0444,"dy":0.0017,"dx":0.0017,"nx":28,"ny":28,"refTime":"2025-11-21T03:00:00:Z","depth":"2","parameterNumber":2,"parameterNumberName":"U-component_of_CURRENTS"},"data":[0,0,0,0,0,0,0,0,0,0,0,0,0,0,0,0,0,0,0,0,0,0,0,0,0,0,0,0,0,0,0,0,0,0,0,0,0,0,0,0,0,0,0,0,0,0,0,0,0,0,0,0,0,0,0,0,0,0,0.2642,0.2642,0,0.2652,0.2652,0.2652,0.2646,0.2646,0.2646,0.2645,0.2637,0.2637,0.2637,0,0,0,0,0,0,0,0,0,0,0,0,0,0.2625,0.2625,0.2642,0.2642,0.2643,0.2652,0.2652,0.2652,0.2646,0.2646,0.2645,0.2645,0.2637,0.2637,0.2637,0,0,0,0,0,0,0,0,0,0,0,0,0,0.2631,0.2625,0.2642,0.2642,0.2643,0.2652,0.2652,0.2652,0.2646,0.2646,0.2645,0.2645,0.2638,0.2637,0.2637,0.2638,0,0,0.2637,0.2636,0,0,0,0,0,0,0,0,0.2631,0.2631,0.2642,0.2642,0.2643,0.265,0.2643,0.2647,0.2646,0.2642,0.2645,0.2645,0.2641,0.2641,0.264,0.2638,0.2638,0.2636,0.2636,0.2636,0.2636,0,0,0,0,0,0,0,0.263,0.2631,0.2644,0.2642,0.2643,0.2645,0.2645,0.2644,0.264,0.2642,0.2643,0.2647,0.2641,0.264,0.264,0.2638,0.2636,0.2636,0.2636,0.2636,0.2693,0.2694,0,0,0,0,0,0,0.2633,0.2631,0.2643,0.2644,0.2639,0.2645,0.2646,0.2646,0.2641,0.2641,0.2648,0.2647,0.2641,0.264,0.2639,0.2686,0.2636,0.2636,0.2636,0.2691,0.2693,0.2695,0,0,0,0,0,0,0.2633,0.2634,0.2643,0.264,0.2641,0.2646,0.2646,0.2646,0.2658,0.2645,0.2644,0.2661,0.2641,0.264,0.2656,0.2683,0.2636,0.2636,0.2689,0.2692,0.2694,0.2749,0,0,0,0,0,0,0.2632,0.2634,0.2641,0.264,0.2642,0.2658,0.2646,0.2646,0.2661,0.2661,0.2656,0.2655,0.264,0.2657,0.2656,0.2682,0.2636,0.2687,0.269,0.2693,0.2745,0.2753,0.276,0,0,0,0,0,0.2631,0.2637,0.2641,0.2643,0.2649,0.2659,0.2661,0.2662,0.2663,0.2671,0.2673,0.2655,0.2676,0.2658,0.2656,0.2683,0.2686,0.269,0.2693,0.2742,0.2752,0.276,0,0,0,0,0,0,0.2631,0.2638,0.2641,0.2648,0.266,0.2659,0.2669,0.2673,0.2681,0.2685,0.2671,0.267,0.2698,0.2685,0.2666,0.2711,0.268,0.2684,0.2718,0.2727,0.2734,0.274,0.2635,0,0,0,0,0,0.2636,0.2643,0.2651,0.2659,0.2666,0.2672,0.268,0.2684,0.269,0.2693,0.2692,0.2697,0.2711,0.2714,0.272,0.2738,0.2742,0.2758,0.2766,0.2772,0.2778,0.2819,0.2831,0.2707,0.2707,0.2707,0,0,0.2638,0.2644,0.2647,0.2661,0.2668,0.2684,0.2676,0.2694,0.2711,0.2692,0.2715,0.2723,0.2723,0.2749,0.2761,0.2741,0.2809,0.2776,0.2782,0.2784,0.2824,0.2836,0.2847,0.2709,0.2709,0.2709,0,0,0.2644,0.2652,0.2662,0.2674,0.2695,0.2702,0.2713,0.2725,0.2735,0.276,0.2759,0.2785,0.2793,0.2804,0.281,0.2862,0.285,0.2867,0.2903,0.2943,0.2953,0.2963,0.298,0.299,0.2866,0.2866,0.2866,0,0.265,0.2657,0.2668,0.2683,0.2695,0.2714,0.273,0.2747,0.2765,0.2787,0.2776,0.2825,0.2821,0.2866,0.2884,0.2879,0.2893,0.2866,0.2953,0.2962,0.297,0.2985,0.2996,0.2869,0.2869,0.2868,0.2868,0,0.2659,0.2673,0.2682,0.2707,0.2725,0.2741,0.2768,0.2796,0.2814,0.2837,0.2889,0.2893,0.2923,0.293,0.2919,0.2984,0.2971,0.296,0.2928,0.2986,0.2998,0.3008,0.2873,0.2872,0.2871,0.2871,0,0,0.2646,0.2681,0.2684,0.2697,0.2736,0.2748,0.2796,0.284,0.2881,0.2911,0.2959,0.2992,0.3009,0.3017,0.3016,0.3045,0.311,0.3029,0.303,0.3042,0.3191,0.3132,0.3137,0.3119,0.3121,0.3123,0.3174,0,0.2649,0.2672,0.2694,0.2724,0.2737,0.2777,0.2819,0.287,0.2914,0.2969,0.3005,0.305,0.3038,0.3057,0.3091,0.3111,0.314,0.3096,0.3137,0.3138,0.3075,0.3148,0.2888,0.2908,0.3184,0.3185,0.3187,0,0.2642,0.2661,0.2683,0.273,0.2741,0.277,0.2842,0.2884,0.2978,0.3018,0.3084,0.3113,0.3175,0.3146,0.3221,0.3196,0.3202,0.3207,0.3209,0.3142,0.3098,0.2897,0.2916,0.3203,0.3202,0.32,0.3199,0,0.2605,0.2648,0.2663,0.2677,0.2739,0.2768,0.2811,0.2901,0.2951,0.3055,0.3104,0.3184,0.3225,0.3261,0.3283,0.3261,0.3353,0.3319,0.3271,0.3265,0.3045,0.3017,0.3372,0.3372,0.3372,0.3371,0.3371,0,0.2584,0.2596,0.2648,0.2656,0.2694,0.2747,0.2808,0.2873,0.2974,0.3039,0.3125,0.3187,0.3259,0.3316,0.332,0.3336,0.3389,0.3294,0.3286,0.3056,0.303,0.3282,0.3271,0.3373,0.3373,0.3373,0.3372,0,0.2534,0.2567,0.2588,0.2651,0.2673,0.2701,0.2795,0.284,0.2951,0.3036,0.3072,0.3212,0.3292,0.3344,0.3408,0.3377,0.3395,0.338,0.3099,0.3058,0.3265,0.3257,0.3331,0.333,0.3328,0.3327,0.3327,0,0.2507,0.2512,0.2569,0.2581,0.2609,0.2662,0.2698,0.2815,0.2864,0.304,0.3069,0.3202,0.3261,0.3349,0.3323,0.3326,0.3392,0.3082,0.2992,0.3282,0.3267,0.326,0.3254,0.2715,0.2709,0.2704,0.27,0,0.2459,0.2481,0.2498,0.2523,0.2553,0.2587,0.2648,0.2683,0.2818,0.2893,0.2997,0.3067,0.3172,0.3076,0.3105,0.3069,0.3061,0.2986,0.3374,0.2774,0.2708,0.2691,0.2703,0.2658,0.2663,0.2666,0.2668,0.267,0.242,0.2415,0.2436,0.2448,0.2478,0.2484,0.2475,0.2545,0.2601,0.2677,0.283,0.2843,0.2891,0.2807,0.2724,0.2656,0.2863,0.2721,0.2732,0.275,0.2678,0.2615,0.2533,0.2536,0.2539,0.2541,0.2544,0,0.235,0.2348,0.2356,0.2351,0.2329,0.239,0.2411,0.2372,0.2372,0.2482,0.2543,0.2365,0.2321,0.2364,0.2192,0.2193,0.2138,0.2104,0.2004,0.2049,0.2089,0.198,0.1651,0.1648,0.1645,0.1642,0,0,0.2313,0.2277,0.2267,0.2194,0.2194,0.2124,0.2108,0.2079,0.2106,0.2079,0.2069,0.2251,0.2316,0.1963,0.1917,0.1753,0.1884,0.1683,0.2406,0.2336,0.2371,0.246,0.2346,0,0,0,0,0]},{"header":{"parameterUnit":"m.s-1","parameterCategory":2,"la1":30.2991,"la2":30.254,"lo1":-89.0895,"lo2":-89.0444,"dy":0.0017,"dx":0.0017,"nx":28,"ny":28,"refTime":"2025-11-21T03:00:00:Z","depth":"2","parameterNumber":3,"parameterNumberName":"V-component_of_CURRENTS"},"data":[0,0,0,0,0,0,0,0,0,0,0,0,0,0,0,0,0,0,0,0,0,0,0,0,0,0,0,0,0,0,0,0,0,0,0,0,0,0,0,0,0,0,0,0,0,0,0,0,0,0,0,0,0,0,0,0,0,0,0.0242,0.0242,0,0.0208,0.0208,0.0207,0.0183,0.0183,0.0183,0.0183,0.014,0.0139,0.0138,0,0,0,0,0,0,0,0,0,0,0,0,0,0.0235,0.0235,0.0242,0.0242,0.0242,0.0208,0.0208,0.0207,0.0183,0.0183,0.0183,0.0183,0.014,0.0139,0.0138,0,0,0,0,0,0,0,0,0,0,0,0,0,0.0222,0.0235,0.0242,0.0226,0.0224,0.0208,0.0208,0.0207,0.0183,0.0183,0.0183,0.0183,0.0141,0.0139,0.0138,0.0131,0,0,0.0133,0.0132,0,0,0,0,0,0,0,0,0.0223,0.0223,0.0229,0.0227,0.0225,0.0201,0.0189,0.0182,0.0183,0.0198,0.0183,0.0183,0.016,0.0157,0.015,0.0129,0.0128,0.0133,0.0132,0.0131,0.0131,0,0,0,0,0,0,0,0.0224,0.0224,0.0228,0.0229,0.0226,0.0203,0.0201,0.0187,0.018,0.0197,0.0195,0.0193,0.0159,0.0151,0.0149,0.0127,0.0133,0.0131,0.013,0.013,0.0103,0.0103,0,0,0,0,0,0,0.0233,0.0225,0.0229,0.0227,0.0225,0.0203,0.0202,0.0208,0.018,0.0176,0.0193,0.0192,0.0154,0.015,0.0147,0.0154,0.0131,0.013,0.0129,0.0103,0.0103,0.0103,0,0,0,0,0,0,0.0233,0.0234,0.023,0.0225,0.0223,0.0204,0.0211,0.0207,0.0204,0.0177,0.0173,0.0194,0.0154,0.0149,0.0142,0.0152,0.0129,0.0127,0.0102,0.0103,0.0103,0.0159,0,0,0,0,0,0,0.0233,0.0235,0.0241,0.0226,0.0224,0.0231,0.0211,0.0207,0.0203,0.0201,0.0176,0.0172,0.0153,0.0145,0.0141,0.0149,0.0126,0.0102,0.0103,0.0103,0.0157,0.0161,0.0165,0,0,0,0,0,0.0233,0.0248,0.0242,0.0242,0.0234,0.0232,0.0229,0.0213,0.0203,0.0208,0.019,0.0173,0.0144,0.0144,0.0139,0.0148,0.0102,0.0103,0.0103,0.0155,0.016,0.0165,0,0,0,0,0,0,0.0247,0.0246,0.0239,0.0253,0.0246,0.0228,0.0229,0.0218,0.0207,0.0204,0.0178,0.0173,0.0168,0.015,0.015,0.014,0.0119,0.0119,0.016,0.0165,0.0169,0.0187,0.0125,0,0,0,0,0,0.0253,0.0264,0.0256,0.0266,0.0265,0.0247,0.0243,0.0234,0.0222,0.0217,0.0199,0.0179,0.0165,0.016,0.0143,0.0141,0.0117,0.0141,0.0146,0.0149,0.016,0.0129,0.0132,0.0105,0.0105,0.0105,0,0,0.026,0.0261,0.0266,0.0269,0.026,0.0272,0.0244,0.0244,0.0253,0.0214,0.0218,0.0192,0.0167,0.0164,0.016,0.0152,0.0143,0.015,0.0153,0.0162,0.013,0.0133,0.0135,0.0105,0.0105,0.0105,0,0,0.0283,0.0281,0.0299,0.03,0.0296,0.0288,0.0292,0.0279,0.0272,0.0271,0.0244,0.0228,0.0208,0.0193,0.0182,0.0198,0.0163,0.0189,0.0228,0.0198,0.0201,0.0202,0.0172,0.0171,0.0194,0.0194,0.0194,0,0.029,0.0316,0.0303,0.0321,0.0329,0.0302,0.0326,0.0316,0.0301,0.0302,0.0281,0.0249,0.0223,0.0224,0.0226,0.0209,0.0185,0.0214,0.0205,0.0206,0.0206,0.0175,0.0173,0.0197,0.0196,0.0196,0.0196,0,0.0331,0.0349,0.036,0.0379,0.0384,0.0398,0.0388,0.0387,0.0371,0.0362,0.0352,0.0311,0.0296,0.0279,0.0258,0.0254,0.0233,0.0212,0.0196,0.0213,0.0178,0.0175,0.0201,0.02,0.0199,0.0198,0,0,0.0356,0.0385,0.0389,0.0413,0.0419,0.0432,0.0442,0.0452,0.0471,0.0434,0.0449,0.0408,0.0381,0.0367,0.033,0.0302,0.0278,0.0265,0.0262,0.0241,0.0212,0.0192,0.0186,0.0255,0.0254,0.0254,0.0185,0,0.0393,0.0448,0.0449,0.0499,0.0529,0.0513,0.0533,0.0534,0.0524,0.0528,0.0475,0.0472,0.0416,0.0409,0.0371,0.0306,0.0272,0.0299,0.0193,0.019,0.0176,0.0183,0.0197,0.0136,0.0181,0.0181,0.018,0,0.0435,0.047,0.0528,0.0574,0.0586,0.0607,0.064,0.0656,0.0648,0.0639,0.0615,0.0571,0.0529,0.0473,0.0369,0.0389,0.0308,0.0248,0.0243,0.0206,0.0165,0.0126,0.0128,0.0174,0.0174,0.0175,0.0175,0,0.0472,0.0526,0.0578,0.0594,0.0637,0.0657,0.068,0.069,0.0723,0.0711,0.0723,0.0658,0.0634,0.0524,0.0392,0.0381,0.027,0.0237,0.0141,0.0139,0.0121,0.0118,0.0159,0.0159,0.0159,0.0159,0.016,0,0.0517,0.0559,0.0601,0.0632,0.0702,0.071,0.078,0.0787,0.0814,0.087,0.0786,0.0802,0.0645,0.0558,0.0423,0.0278,0.029,0.0153,0.0122,0.014,0.0139,0.0149,0.0149,0.0157,0.0157,0.0158,0.0158,0,0.0551,0.0575,0.0643,0.0699,0.0722,0.0775,0.0854,0.0908,0.0915,0.098,0.0979,0.0915,0.0807,0.0636,0.0464,0.0333,0.0185,0.0126,0.0158,0.0132,0.0063,0.0067,0.0015,0.0014,0.0013,0.0012,0.0011,0,0.0576,0.0613,0.0696,0.0745,0.0774,0.0853,0.0915,0.0958,0.1023,0.1058,0.1095,0.1007,0.0967,0.0697,0.0455,0.0216,0.0182,0.0063,0.0041,0.0075,0.005,0.0055,0.0059,0.0034,0.0034,0.0033,0.0033,0,0.0624,0.0647,0.0706,0.0809,0.0882,0.0979,0.1067,0.1134,0.1196,0.1244,0.1289,0.1253,0.1005,0.077,0.0436,0.0267,0.01,0.0047,0.0076,0.0073,0.0088,0.0065,0.007,0.0029,0.003,0.003,0.003,0.003,0.0656,0.0705,0.0779,0.0879,0.0969,0.1086,0.1174,0.1272,0.1383,0.1462,0.1431,0.1381,0.111,0.0686,0.0394,0.008,0.0096,-0.0023,-0.0021,-0.0018,0.0002,0.0015,-0.0054,-0.0054,-0.0054,-0.0055,-0.0055,0,0.0698,0.0755,0.0846,0.0964,0.1069,0.1114,0.1266,0.1355,0.1489,0.1553,0.1586,0.1323,0.1048,0.0725,0.0267,-0.0001,-0.0025,-0.0098,-0.0064,-0.0059,-0.0054,-0.0036,-0.0103,-0.0104,-0.0104,-0.0105,0,0,0.072,0.0805,0.0852,0.1021,0.1112,0.1257,0.1349,0.1478,0.1556,0.162,0.1595,0.1534,0.1143,0.0807,0.0435,0.0168,0.0115,0.0108,0.0174,0.0263,0.0271,0.0014,0.0051,0,0,0,0,0]}],[{"header":{"parameterUnit":"m.s-1","parameterCategory":2,"la1":30.2991,"la2":30.254,"lo1":-89.0895,"lo2":-89.0444,"dy":0.0017,"dx":0.0017,"nx":28,"ny":28,"refTime":"2025-11-21T03:00:00:Z","depth":"4","parameterNumber":2,"parameterNumberName":"U-component_of_CURRENTS"},"data":[0,0,0,0,0,0,0,0,0,0,0,0,0,0,0,0,0,0,0,0,0,0,0,0,0,0,0,0,0,0,0,0,0,0,0,0,0,0,0,0,0,0,0,0,0,0,0,0,0,0,0,0,0,0,0,0,0,0,0.1675,0.1675,0,0.1723,0.1723,0.1724,0.1772,0.1772,0.1773,0.1774,0.1831,0.1831,0.1832,0,0,0,0,0,0,0,0,0,0,0,0,0,0.162,0.162,0.1675,0.1676,0.1676,0.1723,0.1723,0.1724,0.1771,0.1772,0.1773,0.1774,0.183,0.1831,0.1832,0,0,0,0,0,0,0,0,0,0,0,0,0,0.1651,0.162,0.1675,0.1707,0.1711,0.1723,0.1723,0.1724,0.1771,0.1772,0.1774,0.1775,0.183,0.1831,0.1832,0.1815,0,0,0.1836,0.1836,0,0,0,0,0,0,0,0,0.1649,0.1653,0.1702,0.1705,0.1709,0.1744,0.1725,0.1755,0.1771,0.1746,0.1774,0.1775,0.1803,0.1806,0.181,0.1817,0.182,0.1836,0.1836,0.1837,0.1837,0,0,0,0,0,0,0,0.1647,0.1651,0.1692,0.1702,0.1707,0.1718,0.1724,0.1731,0.1766,0.1748,0.1752,0.1761,0.1805,0.1808,0.1811,0.1821,0.1836,0.1837,0.1837,0.1838,0.1932,0.1934,0,0,0,0,0,0,0.1644,0.1649,0.169,0.1693,0.1684,0.1718,0.1724,0.173,0.1765,0.1773,0.176,0.1763,0.1806,0.181,0.1814,0.1896,0.1837,0.1838,0.1839,0.193,0.1933,0.1935,0,0,0,0,0,0,0.1643,0.1647,0.1688,0.1674,0.1681,0.1718,0.1724,0.173,0.1773,0.1774,0.1781,0.18,0.1807,0.1812,0.1857,0.1894,0.1838,0.1839,0.1928,0.1931,0.1934,0.1995,0,0,0,0,0,0,0.1641,0.1646,0.1668,0.1674,0.1681,0.1719,0.1723,0.1731,0.1774,0.178,0.181,0.1815,0.1808,0.1856,0.1858,0.1895,0.184,0.1926,0.1929,0.1933,0.1991,0.1999,0.2007,0,0,0,0,0,0.1639,0.1654,0.1668,0.1675,0.1703,0.172,0.1725,0.1754,0.1776,0.1797,0.1825,0.1816,0.188,0.1858,0.1861,0.1898,0.1924,0.1928,0.1932,0.1987,0.1998,0.2007,0,0,0,0,0,0,0.1642,0.1661,0.1677,0.1699,0.1721,0.1729,0.1757,0.1775,0.1813,0.1832,0.1834,0.184,0.1895,0.1889,0.1865,0.1937,0.1902,0.1907,0.1943,0.1953,0.1961,0.1965,0.1841,0,0,0,0,0,0.1652,0.1673,0.1688,0.1712,0.1726,0.175,0.177,0.1789,0.1814,0.1834,0.1856,0.1882,0.1907,0.1925,0.1942,0.1977,0.1977,0.2006,0.2014,0.2021,0.2027,0.2065,0.2077,0.1948,0.1948,0.1948,0,0,0.1661,0.1675,0.1689,0.1716,0.1738,0.1761,0.1766,0.1805,0.1835,0.1832,0.1894,0.1914,0.1924,0.1968,0.1991,0.1972,0.2058,0.2026,0.2032,0.2034,0.2071,0.2083,0.2094,0.1951,0.195,0.195,0,0,0.1676,0.1704,0.1724,0.1744,0.1784,0.1797,0.1817,0.1849,0.188,0.1929,0.1942,0.1987,0.2022,0.2037,0.2047,0.211,0.2102,0.2124,0.2167,0.2204,0.2215,0.2224,0.2239,0.2249,0.2126,0.2126,0.2126,0,0.1693,0.1712,0.1734,0.1757,0.178,0.1817,0.1843,0.1874,0.1922,0.1954,0.1962,0.2043,0.2052,0.2104,0.213,0.2129,0.2144,0.2126,0.2214,0.2224,0.2232,0.2245,0.2255,0.213,0.2129,0.2129,0.2129,0,0.1706,0.174,0.1755,0.1795,0.1824,0.1855,0.1894,0.1942,0.1988,0.2018,0.2098,0.2119,0.2168,0.218,0.2174,0.2246,0.2234,0.2221,0.2186,0.2249,0.2258,0.2268,0.2135,0.2133,0.2132,0.2131,0,0,0.1695,0.1753,0.1764,0.179,0.1849,0.1868,0.1933,0.1991,0.2045,0.2106,0.2171,0.2224,0.2255,0.2268,0.2277,0.2308,0.2378,0.2298,0.2298,0.2307,0.2456,0.2297,0.2292,0.2387,0.2389,0.2391,0.2437,0,0.1703,0.1744,0.1777,0.183,0.1853,0.1911,0.1965,0.203,0.2094,0.2168,0.2218,0.2284,0.2282,0.232,0.2356,0.2377,0.2408,0.2366,0.2399,0.24,0.2246,0.23,0.2398,0.2444,0.2447,0.2448,0.2449,0,0.1696,0.1728,0.1776,0.1846,0.1864,0.1911,0.2007,0.2062,0.2171,0.2225,0.231,0.2351,0.2426,0.2407,0.2485,0.2465,0.2472,0.2476,0.2478,0.2313,0.2259,0.237,0.2466,0.2465,0.2464,0.2463,0.2462,0,0.1653,0.1723,0.1764,0.1787,0.1874,0.1924,0.1984,0.209,0.2149,0.2277,0.2335,0.2427,0.2485,0.2522,0.2547,0.2531,0.2612,0.2583,0.2444,0.2432,0.2534,0.2524,0.2632,0.2632,0.2632,0.2632,0.2632,0,0.1622,0.166,0.1755,0.1775,0.1841,0.1914,0.2001,0.208,0.2196,0.2263,0.2371,0.2427,0.2522,0.2575,0.258,0.2542,0.2645,0.2457,0.2437,0.2558,0.255,0.2541,0.2529,0.2634,0.2633,0.2633,0.2633,0,0.156,0.1623,0.1676,0.1781,0.1821,0.1873,0.2002,0.2055,0.2186,0.2277,0.2323,0.2456,0.2521,0.2582,0.2641,0.2564,0.2552,0.2511,0.2641,0.2627,0.2336,0.2328,0.2349,0.2344,0.2339,0.2336,0.2333,0,0.1525,0.1549,0.1668,0.1704,0.1759,0.1849,0.1904,0.204,0.2091,0.2268,0.229,0.2415,0.2481,0.2435,0.2516,0.2511,0.2479,0.2449,0.2381,0.233,0.231,0.2309,0.2306,0.2326,0.2324,0.2323,0.2322,0,0.146,0.1523,0.1567,0.164,0.1706,0.1762,0.1852,0.1876,0.2022,0.2159,0.2198,0.223,0.2297,0.2332,0.2349,0.2342,0.2453,0.2402,0.241,0.2347,0.2303,0.2286,0.2289,0.2307,0.2309,0.2311,0.2311,0,0.142,0.1434,0.1503,0.1552,0.1627,0.1644,0.1707,0.1754,0.1821,0.2004,0.2015,0.2147,0.2274,0.2246,0.2265,0.2245,0.22,0.2107,0.213,0.2147,0.2059,0.1972,0.1862,0,0,0,0,0,0.1366,0.1363,0.1403,0.1439,0.1506,0.1551,0.1651,0.1714,0.1855,0.1826,0.1912,0.1961,0.1991,0.2065,0.2001,0.2177,0.2212,0.2092,0.2118,0.2223,0.224,0.2155,0,0,0,0,0,0,0.1325,0.136,0.1362,0.1333,0.1339,0.1392,0.1453,0.155,0.1538,0.1692,0.172,0.1834,0.1898,0.2007,0.1963,0.1982,0.1953,0.2176,0.2171,0.2213,0.2229,0.2243,0.2161,0,0,0,0,0]},{"header":{"parameterUnit":"m.s-1","parameterCategory":2,"la1":30.2991,"la2":30.254,"lo1":-89.0895,"lo2":-89.0444,"dy":0.0017,"dx":0.0017,"nx":28,"ny":28,"refTime":"2025-11-21T03:00:00:Z","depth":"4","parameterNumber":3,"parameterNumberName":"V-component_of_CURRENTS"},"data":[0,0,0,0,0,0,0,0,0,0,0,0,0,0,0,0,0,0,0,0,0,0,0,0,0,0,0,0,0,0,0,0,0,0,0,0,0,0,0,0,0,0,0,0,0,0,0,0,0,0,0,0,0,0,0,0,0,0,0.0196,0.0196,0,0.0176,0.0176,0.0176,0.0165,0.0165,0.0165,0.0165,0.014,0.0139,0.0138,0,0,0,0,0,0,0,0,0,0,0,0,0,0.0187,0.0187,0.0196,0.0196,0.0196,0.0177,0.0176,0.0176,0.0165,0.0165,0.0165,0.0165,0.014,0.0139,0.0138,0,0,0,0,0,0,0,0,0,0,0,0,0,0.0181,0.0187,0.0196,0.0188,0.0187,0.0177,0.0176,0.0176,0.0165,0.0165,0.0165,0.0165,0.014,0.0139,0.0138,0.0132,0,0,0.0135,0.0135,0,0,0,0,0,0,0,0,0.0182,0.0182,0.0189,0.0189,0.0188,0.0173,0.0164,0.0161,0.0165,0.0173,0.0165,0.0165,0.0151,0.0149,0.0145,0.0131,0.013,0.0135,0.0134,0.0134,0.0134,0,0,0,0,0,0,0,0.0182,0.0182,0.0188,0.0189,0.0188,0.0173,0.0172,0.0163,0.0162,0.0172,0.0172,0.017,0.015,0.0146,0.0144,0.013,0.0135,0.0134,0.0134,0.0133,0.0117,0.0117,0,0,0,0,0,0,0.0187,0.0183,0.0189,0.0187,0.0185,0.0173,0.0172,0.0178,0.0162,0.016,0.017,0.0169,0.0147,0.0145,0.0143,0.0153,0.0134,0.0133,0.0132,0.0117,0.0117,0.0118,0,0,0,0,0,0,0.0187,0.0188,0.0189,0.0184,0.0183,0.0174,0.0179,0.0177,0.0178,0.016,0.0158,0.0174,0.0147,0.0145,0.0143,0.0151,0.0133,0.0132,0.0117,0.0117,0.0117,0.016,0,0,0,0,0,0,0.0187,0.0188,0.0195,0.0185,0.0184,0.0192,0.0179,0.0177,0.0177,0.0176,0.0163,0.016,0.0147,0.0145,0.0142,0.0149,0.0131,0.0117,0.0117,0.0117,0.0159,0.0162,0.0165,0,0,0,0,0,0.0187,0.0199,0.0196,0.0196,0.0194,0.0192,0.0191,0.0183,0.0177,0.0183,0.0173,0.0161,0.0145,0.0144,0.0141,0.0148,0.0117,0.0117,0.0117,0.0157,0.0162,0.0165,0,0,0,0,0,0,0.0197,0.0198,0.0195,0.0206,0.0203,0.0191,0.0194,0.0188,0.0183,0.0183,0.0165,0.0162,0.0162,0.0149,0.0149,0.0143,0.0127,0.0127,0.0159,0.0163,0.0166,0.0179,0.013,0,0,0,0,0,0.0203,0.0213,0.0208,0.0217,0.0217,0.0206,0.0204,0.02,0.0193,0.0191,0.0181,0.0169,0.016,0.0157,0.0146,0.0146,0.0124,0.0147,0.015,0.0153,0.0161,0.0131,0.0132,0.0119,0.0119,0.0119,0,0,0.0209,0.021,0.0216,0.0219,0.0215,0.0225,0.0205,0.0208,0.0216,0.0189,0.0197,0.018,0.0162,0.0162,0.016,0.0153,0.0144,0.0153,0.0156,0.0163,0.0131,0.0133,0.0134,0.0119,0.0119,0.0119,0,0,0.0226,0.0228,0.0242,0.0244,0.0243,0.0239,0.0243,0.0236,0.0233,0.0236,0.0218,0.0207,0.0196,0.0184,0.0177,0.019,0.0161,0.0185,0.0214,0.0184,0.0185,0.0186,0.0157,0.0155,0.0188,0.0188,0.0188,0,0.0233,0.0254,0.0245,0.026,0.0268,0.025,0.0269,0.0264,0.0257,0.0259,0.0246,0.0226,0.0207,0.0207,0.0211,0.0198,0.0176,0.0203,0.0189,0.0189,0.0189,0.0159,0.0156,0.019,0.0189,0.0189,0.0189,0,0.0262,0.0279,0.0288,0.0305,0.0311,0.0323,0.0318,0.032,0.0312,0.0306,0.0302,0.0272,0.0263,0.025,0.0235,0.0229,0.0212,0.0196,0.0182,0.0193,0.0161,0.0157,0.0193,0.0192,0.0191,0.0191,0,0,0.0279,0.0305,0.0309,0.033,0.0338,0.0349,0.036,0.037,0.0385,0.0362,0.0374,0.0345,0.0326,0.0316,0.0289,0.0262,0.0237,0.0234,0.0231,0.0209,0.0172,0.0154,0.0148,0.0218,0.0217,0.0217,0.0149,0,0.0306,0.0348,0.0352,0.0394,0.0418,0.0411,0.043,0.0433,0.0428,0.0432,0.0392,0.0393,0.0352,0.035,0.0315,0.026,0.0229,0.0257,0.0161,0.0158,0.0144,0.0144,0.0216,0.0146,0.0145,0.0144,0.0144,0,0.0334,0.0363,0.041,0.0451,0.0461,0.0483,0.0513,0.0529,0.0523,0.0518,0.0501,0.0468,0.0432,0.0392,0.03,0.032,0.0253,0.0201,0.0197,0.0165,0.0133,0.0132,0.0136,0.0137,0.0137,0.0138,0.0138,0,0.0356,0.0403,0.0446,0.046,0.0501,0.0522,0.0545,0.0556,0.0583,0.0576,0.0586,0.0531,0.0512,0.0419,0.031,0.0306,0.02,0.0178,0.0096,0.0094,0.0112,0.0112,0.0108,0.0108,0.0109,0.0109,0.0109,0,0.0384,0.042,0.0464,0.0489,0.055,0.0563,0.0624,0.0633,0.0656,0.0695,0.0638,0.064,0.0518,0.044,0.0329,0.0203,0.0211,0.0103,0.0076,0.013,0.0133,0.0108,0.0109,0.0106,0.0107,0.0107,0.0108,0,0.04,0.0426,0.0484,0.0539,0.0563,0.0609,0.0685,0.0727,0.074,0.0783,0.0784,0.0725,0.0625,0.0489,0.0339,0.0239,0.0112,0.0063,0.0136,0.0114,0.002,0.0024,-0.0032,-0.0033,-0.0034,-0.0035,-0.0036,0,0.0412,0.0442,0.0523,0.0567,0.0597,0.0671,0.0726,0.0768,0.0813,0.0834,0.0852,0.0774,0.0713,0.0493,0.0342,0.0128,0.0093,0.0021,0.0014,0.0027,0.0006,0.0012,0.0017,-0.0037,-0.0038,-0.0038,-0.0038,0,0.0436,0.0464,0.0514,0.0605,0.0673,0.0756,0.0831,0.0869,0.0917,0.0928,0.0908,0.0794,0.0679,0.0499,0.0334,0.0178,0.0064,0.001,0.0011,0.0004,0.002,0.0002,0.0008,-0.0042,-0.0041,-0.0041,-0.0041,0,0.0453,0.049,0.0556,0.0639,0.0727,0.081,0.0853,0.0904,0.0947,0.096,0.0953,0.0825,0.0757,0.0525,0.0372,0.0217,0.017,0.0108,0.0103,0.0104,0.0157,0.0198,0.0172,0,0,0,0,0,0.0468,0.051,0.0585,0.0675,0.0765,0.082,0.091,0.0945,0.0986,0.098,0.0969,0.0859,0.0638,0.0544,0.0386,0.0338,0.0134,0.0144,0.0057,-0.0061,-0.0057,-0.002,0,0,0,0,0,0,0.0476,0.0543,0.0581,0.0691,0.0758,0.0862,0.0922,0.0954,0.0949,0.0962,0.0851,0.0804,0.0591,0.0729,0.0379,0.0333,0.025,0.0047,0.0043,-0.0063,-0.0059,-0.0056,-0.0017,0,0,0,0,0]}]]